[[{"header":{"parameterUnit":"m.s-1","parameterCategory":1,"la1":30.2991,"la2":30.254,"lo1":-89.0895,"lo2":-89.0444,"dy":0.0017,"dx":0.0017,"nx":28,"ny":28,"refTime":"2025-07-10T03:00:00:Z","depth":0,"parameterNumber":2,"parameterNumberName":"U-component_of_WINDS"},"data":[0,0,0,0,0,0,0,0,0,0,0,0,0,0,0,0,0,0,0,0,0,0,0,0,0,0,0,0,0,0,0,0,0,0,0,0,0,0,0,0,0,0,0,0,0,0,0,0,0,0,0,0,0,0,0,0,0,0,3.8063,3.8065,0,3.8214,3.8215,3.8217,3.8177,3.8174,3.8171,3.8168,3.8324,3.8331,3.8338,0,0,0,0,0,0,0,0,0,0,0,0,0,3.774,3.7746,3.8063,3.8065,3.8067,3.8213,3.8216,3.8218,3.8177,3.8174,3.817,3.8166,3.8322,3.833,3.8338,0,0,0,0,0,0,0,0,0,0,0,0,0,3.7885,3.7748,3.8063,3.8064,3.8066,3.8213,3.8216,3.8218,3.8178,3.8173,3.8169,3.8165,3.8319,3.8329,3.834,3.8495,0,0,3.8372,3.8376,0,0,0,0,0,0,0,0,3.7876,3.7897,3.8062,3.8064,3.8066,3.8172,3.8159,3.8311,3.8179,3.8136,3.8168,3.8162,3.8277,3.8291,3.8329,3.8502,3.8509,3.8372,3.8379,3.8383,3.8386,0,0,0,0,0,0,0,3.7867,3.789,3.8123,3.8065,3.8067,3.8057,3.8073,3.8188,3.823,3.8139,3.8136,3.8155,3.8278,3.8319,3.8332,3.8511,3.8372,3.8382,3.8388,3.8392,3.8816,3.8821,0,0,0,0,0,0,3.7855,3.7882,3.8118,3.8127,3.7958,3.8067,3.8084,3.8143,3.8229,3.8237,3.8158,3.8152,3.8303,3.832,3.8338,3.8523,3.8383,3.8393,3.8399,3.8811,3.8817,3.8823,0,0,0,0,0,0,3.7848,3.7876,3.8112,3.8004,3.8033,3.8077,3.8143,3.8148,3.8189,3.8243,3.8251,3.8193,3.8301,3.8323,3.8455,3.8528,3.8398,3.8407,3.8806,3.8813,3.882,3.8896,0,0,0,0,0,0,3.7839,3.7874,3.7934,3.8005,3.8039,3.8227,3.8148,3.8154,3.8207,3.8201,3.8278,3.8286,3.8299,3.844,3.8466,3.854,3.8415,3.8799,3.8809,3.8818,3.8887,3.8905,3.8921,0,0,0,0,0,3.7827,3.795,3.7937,3.7966,3.8114,3.8231,3.825,3.8262,3.8213,3.8273,3.8307,3.8284,3.8516,3.8454,3.8483,3.8561,3.8795,3.8806,3.8817,3.888,3.8902,3.892,0,0,0,0,0,0,3.7887,3.796,3.7946,3.8095,3.8157,3.8224,3.83,3.8285,3.8363,3.8353,3.8365,3.8382,3.8517,3.8553,3.8482,3.8714,3.8648,3.8666,3.8686,3.8707,3.8724,3.8712,3.8424,0,0,0,0,0,3.7917,3.8006,3.8065,3.8191,3.8223,3.8256,3.8308,3.8311,3.8376,3.8402,3.8446,3.851,3.8597,3.8655,3.8738,3.8893,3.8907,3.8961,3.8977,3.8991,3.9005,3.9087,3.911,3.886,3.886,3.8859,0,0,3.7982,3.8032,3.8088,3.8204,3.8253,3.8343,3.8279,3.8379,3.8446,3.8417,3.8544,3.8579,3.8651,3.8794,3.8859,3.8828,3.9078,3.9005,3.9015,3.9023,3.9101,3.9124,3.9145,3.8867,3.8866,3.8865,0,0,3.8144,3.8192,3.8301,3.835,3.8424,3.8445,3.8471,3.854,3.8561,3.8688,3.8668,3.8749,3.8899,3.895,3.8996,3.9176,3.9156,3.9203,3.929,3.9369,3.9389,3.9406,3.9468,3.949,3.9218,3.9218,3.9218,0,3.8214,3.835,3.8359,3.846,3.8511,3.8488,3.8598,3.8645,3.8743,3.8778,3.8742,3.8928,3.8975,3.9129,3.9172,3.9211,3.924,3.9194,3.9385,3.9403,3.9419,3.9478,3.9501,3.9223,3.9222,3.9222,3.9221,0,3.8432,3.8526,3.8606,3.8698,3.8758,3.8864,3.8888,3.8948,3.8945,3.897,3.9098,3.9154,3.9247,3.9284,3.9284,3.9437,3.9415,3.9382,3.9315,3.9448,3.9503,3.9526,3.923,3.9228,3.9227,3.9226,0,0,3.8637,3.8731,3.876,3.88,3.8879,3.8952,3.9055,3.9145,3.9195,3.9263,3.9348,3.9475,3.9444,3.9496,3.9501,3.9571,3.9706,3.9529,3.9531,3.9558,3.9876,3.9898,3.9925,3.9694,3.9698,3.9702,3.9869,0,3.8805,3.8985,3.8995,3.9159,3.9244,3.9223,3.9313,3.937,3.9396,3.9472,3.9501,3.9589,3.9543,3.9574,3.9642,3.9675,3.977,3.9664,3.9773,3.9776,3.9753,3.9954,3.9979,4.0134,3.9891,3.9894,3.9897,0,3.9024,3.9096,3.9268,3.9331,3.9368,3.9448,3.9529,3.9603,3.9667,3.9681,3.9738,3.9732,3.9837,3.9768,3.9911,3.9839,3.9884,3.9907,3.9913,3.9922,3.9843,3.9966,4.0184,4.0206,3.9932,3.9929,3.9927,0,3.9153,3.9294,3.9414,3.9449,3.9527,3.9583,3.9618,3.9678,3.973,3.9802,3.9835,3.9919,3.9964,4.0029,4.0045,3.9994,4.0188,4.0121,4.0201,4.02,4.0242,4.0238,4.0467,4.0274,4.0274,4.0274,4.0273,0,3.9338,3.9444,3.9472,3.9546,3.9662,3.9673,3.9788,3.9819,3.9872,3.9951,3.9939,4.0013,4.0031,4.0109,4.0123,4.0238,4.026,4.0273,4.0275,4.0273,4.0271,4.0301,4.029,4.028,4.0278,4.0277,4.0276,0,3.9502,3.9526,3.9654,3.9716,3.9734,3.9817,3.987,3.9941,3.9964,4.0064,4.0088,4.0124,4.0215,4.0238,4.0347,4.0356,4.0491,4.0485,4.0469,4.0468,4.0546,4.0538,4.0801,4.0835,4.0622,4.0624,4.0626,0,3.9618,3.9698,3.9767,3.9818,3.9855,3.9939,3.9991,4.0004,4.0059,4.0137,4.0197,4.0286,4.0357,4.0503,4.0539,4.0622,4.0615,4.0702,4.0628,4.0622,4.0614,4.0608,4.0615,4.0716,4.0718,4.072,4.0721,0,3.9819,3.9826,3.9902,3.9981,4.0044,4.0108,4.0168,4.0211,4.0232,4.0295,4.0386,4.0442,4.0551,4.0639,4.0721,4.0757,4.0743,4.0744,4.0767,4.0765,4.0751,4.0757,4.0505,4.0738,4.0736,4.0735,4.0734,4.0734,3.9961,4.003,4.0089,4.0173,4.0219,4.0276,4.0344,4.0374,4.0451,4.054,4.0543,4.0642,4.0702,4.0811,4.0851,4.0929,4.0902,4.0936,4.0944,4.0951,4.0956,4.074,4.0944,4.0944,4.0943,4.0943,4.0943,0,4.016,4.0196,4.0273,4.0357,4.0423,4.0402,4.0468,4.0524,4.0611,4.0668,4.0737,4.0841,4.0925,4.0968,4.1051,4.1104,4.11,4.1126,4.1121,4.1129,4.0977,4.0948,4.1128,4.1128,4.1128,4.1128,4.1128,4.1128,4.0271,4.0385,4.0399,4.0536,4.0571,4.0667,4.0705,4.0757,4.0802,4.0918,4.0987,4.1013,4.1064,4.115,4.1226,4.1236,4.1267,4.1296,4.1302,4.1159,4.114,4.1122,4.1094,4.1303,4.1303,4.1448,4.1449,4.145]},{"header":{"parameterUnit":"m.s-1","parameterCategory":1,"la1":30.2991,"la2":30.254,"lo1":-89.0895,"lo2":-89.0444,"dy":0.0017,"dx":0.0017,"nx":28,"ny":28,"refTime":"2025-07-10T03:00:00:Z","depth":0,"parameterNumber":3,"parameterNumberName":"V-component_of_WINDS"},"data":[0,0,0,0,0,0,0,0,0,0,0,0,0,0,0,0,0,0,0,0,0,0,0,0,0,0,0,0,0,0,0,0,0,0,0,0,0,0,0,0,0,0,0,0,0,0,0,0,0,0,0,0,0,0,0,0,0,0,0.4608,0.4607,0,0.4555,0.4554,0.4553,0.4485,0.4484,0.4483,0.4482,0.4428,0.4428,0.4428,0,0,0,0,0,0,0,0,0,0,0,0,0,0.4649,0.4649,0.4608,0.4607,0.4606,0.4555,0.4554,0.4553,0.4485,0.4484,0.4483,0.4481,0.4429,0.4428,0.4428,0,0,0,0,0,0,0,0,0,0,0,0,0,0.4618,0.4649,0.4608,0.4566,0.4562,0.4555,0.4554,0.4553,0.4486,0.4484,0.4482,0.4481,0.4429,0.4428,0.4428,0.4457,0,0,0.4426,0.4426,0,0,0,0,0,0,0,0,0.4619,0.4616,0.4573,0.4569,0.4564,0.4525,0.4549,0.4521,0.4486,0.4515,0.4482,0.448,0.4462,0.4458,0.4452,0.4455,0.4452,0.4426,0.4425,0.4425,0.4425,0,0,0,0,0,0,0,0.4622,0.4618,0.4587,0.4572,0.4567,0.455,0.4544,0.4543,0.4498,0.4512,0.4507,0.4502,0.4459,0.4453,0.445,0.4452,0.4426,0.4425,0.4425,0.4425,0.4474,0.4476,0,0,0,0,0,0,0.463,0.462,0.4588,0.4585,0.4588,0.4551,0.4543,0.4539,0.4498,0.449,0.4503,0.4499,0.4455,0.4451,0.4448,0.448,0.4425,0.4425,0.4424,0.4473,0.4475,0.4476,0,0,0,0,0,0,0.4631,0.4628,0.459,0.4601,0.4595,0.4552,0.4547,0.4539,0.4533,0.4491,0.4483,0.4505,0.4453,0.4449,0.4455,0.4477,0.4424,0.4424,0.4471,0.4473,0.4476,0.4543,0,0,0,0,0,0,0.4633,0.4629,0.464,0.4602,0.4595,0.4599,0.4549,0.4539,0.4532,0.4525,0.4491,0.4484,0.4452,0.4456,0.4455,0.4475,0.4423,0.4469,0.4472,0.4475,0.4539,0.4548,0.4555,0,0,0,0,0,0.4635,0.4661,0.4641,0.4637,0.4608,0.46,0.4596,0.4559,0.4534,0.4544,0.4518,0.4485,0.4475,0.4458,0.4455,0.4476,0.4467,0.4471,0.4475,0.4535,0.4546,0.4555,0,0,0,0,0,0,0.4704,0.4656,0.4632,0.4648,0.4629,0.4589,0.4601,0.4571,0.4559,0.4554,0.4508,0.45,0.4512,0.4494,0.4476,0.4501,0.4466,0.4469,0.4513,0.4523,0.4531,0.4535,0.4423,0,0,0,0,0,0.4721,0.4718,0.4677,0.4694,0.4686,0.4645,0.464,0.4613,0.4591,0.4583,0.4556,0.4537,0.4529,0.4525,0.4515,0.4536,0.4527,0.4548,0.4557,0.4564,0.4567,0.4576,0.4585,0.4489,0.4489,0.4489,0,0,0.4756,0.4729,0.4731,0.4707,0.4689,0.4688,0.4639,0.464,0.4638,0.4583,0.4587,0.4567,0.4541,0.4555,0.4559,0.454,0.4592,0.4568,0.4574,0.4574,0.4581,0.459,0.4598,0.4491,0.4491,0.449,0,0,0.4819,0.4799,0.4811,0.4794,0.4767,0.4739,0.4742,0.4706,0.4691,0.4694,0.4652,0.4649,0.4637,0.462,0.461,0.4666,0.4635,0.4664,0.4707,0.4716,0.4724,0.473,0.475,0.4757,0.4667,0.4668,0.4668,0,0.4867,0.4863,0.4822,0.4825,0.4815,0.4764,0.4776,0.4761,0.4733,0.4727,0.4706,0.4689,0.4668,0.4676,0.469,0.4683,0.4685,0.4668,0.4726,0.4732,0.4737,0.4756,0.4763,0.4671,0.4671,0.4671,0.467,0,0.4922,0.492,0.4933,0.4906,0.4898,0.4906,0.4865,0.4862,0.4835,0.4809,0.4813,0.4786,0.477,0.4769,0.4743,0.4773,0.4762,0.4734,0.4698,0.4751,0.4767,0.4774,0.4677,0.4675,0.4674,0.4673,0,0,0.503,0.4978,0.4984,0.4971,0.4936,0.4933,0.4938,0.4922,0.492,0.4901,0.4904,0.4894,0.4867,0.4856,0.4827,0.4835,0.488,0.4805,0.4804,0.482,0.4911,0.4932,0.4941,0.4858,0.486,0.486,0.4913,0,0.5087,0.5092,0.5054,0.507,0.5067,0.5018,0.5022,0.5001,0.4977,0.497,0.4944,0.4937,0.4903,0.4895,0.4901,0.4873,0.4897,0.4869,0.486,0.4861,0.4869,0.495,0.4973,0.5024,0.4919,0.492,0.4921,0,0.5155,0.5139,0.5154,0.5118,0.5115,0.512,0.5101,0.5096,0.5071,0.5052,0.5039,0.5006,0.5007,0.4972,0.4972,0.4954,0.4948,0.4934,0.4934,0.4933,0.4895,0.4951,0.5039,0.5047,0.493,0.493,0.4929,0,0.5231,0.5214,0.5221,0.5211,0.5169,0.5173,0.5155,0.5128,0.5121,0.5104,0.5098,0.5083,0.5074,0.5062,0.5025,0.5003,0.503,0.4992,0.5015,0.5016,0.5024,0.5024,0.5113,0.5019,0.5019,0.5019,0.5019,0,0.5299,0.5311,0.5254,0.5259,0.5269,0.5225,0.5237,0.5214,0.5191,0.5189,0.5146,0.5145,0.5096,0.509,0.506,0.5065,0.5062,0.5047,0.5039,0.5051,0.5053,0.5047,0.5043,0.5021,0.5021,0.502,0.502,0,0.5387,0.535,0.5354,0.5313,0.5303,0.5313,0.5278,0.528,0.5252,0.5251,0.5248,0.5205,0.5196,0.5157,0.5138,0.5118,0.5133,0.5117,0.5142,0.5137,0.5162,0.516,0.5251,0.526,0.5161,0.5162,0.5163,0,0.5434,0.5441,0.5401,0.5396,0.5381,0.5375,0.5366,0.5323,0.5316,0.5287,0.5292,0.5279,0.5266,0.5252,0.5219,0.5204,0.5188,0.5221,0.5186,0.5197,0.5189,0.5189,0.5189,0.5229,0.523,0.5231,0.5232,0,0.5519,0.55,0.549,0.5473,0.5464,0.5449,0.5431,0.543,0.5381,0.5375,0.5364,0.5354,0.5334,0.5322,0.5301,0.5282,0.5249,0.5243,0.5248,0.5261,0.5274,0.5267,0.5163,0.5242,0.5241,0.524,0.524,0.5239,0.5588,0.5592,0.5564,0.5553,0.5535,0.5519,0.5518,0.549,0.5481,0.5461,0.5436,0.5428,0.5401,0.537,0.5354,0.5347,0.5329,0.5335,0.5337,0.534,0.5345,0.5275,0.5343,0.5343,0.5342,0.5342,0.5342,0,0.5671,0.5651,0.5642,0.5617,0.5609,0.5578,0.5556,0.5551,0.5545,0.5523,0.551,0.5498,0.5485,0.545,0.5434,0.5435,0.5419,0.5432,0.5431,0.5428,0.5363,0.5361,0.5445,0.5445,0.5445,0.5445,0.5445,0.5445,0.5714,0.5719,0.5696,0.5691,0.567,0.5662,0.5652,0.5637,0.5619,0.5607,0.5595,0.5573,0.5545,0.5526,0.5512,0.5502,0.5498,0.5516,0.5502,0.5442,0.5432,0.5423,0.542,0.5516,0.5516,0.5567,0.5567,0.5568]}]]